Simultaneous Nadir Overpasses (SNOs) Predictions

Prediction of SNOs between GOES-16 and NPP Satellite Orbit:

Table of predicted SNOs for the next 14.0 days since TLE Epoch: 2/17/2017
Index Date Time (GOES-16) GOES-16 Lat,Lon NPP Lat,Lon Distance(km) Time Diff (sec)
1 02/17/2017 19:30:05 -0.01, -89.49 -0.49, -91.54 234.10 80
2 02/18/2017 19:14:01 -0.00, -89.49 0.57, -87.02 282.61 80
3 02/20/2017 07:35:47 0.00, -89.48 0.62, -92.28 318.81 80
4 02/21/2017 07:14:22 0.00, -89.48 -0.38, -87.74 197.67 80
5 02/22/2017 19:36:18 0.00, -89.49 -0.76, -93.05 405.42 80
6 02/23/2017 19:20:13 0.01, -89.49 0.24, -88.52 111.52 80
7 02/25/2017 07:41:59 -0.01, -89.49 0.95, -93.78 488.98 80
8 02/26/2017 07:20:33 -0.01, -89.49 -0.05, -89.24 27.87 80
9 02/28/2017 19:23:44 0.01, -89.51 -0.09, -90.02 57.83 80
10 03/01/2017 19:07:39 0.01, -89.51 0.92, -85.48 459.56 80
11 03/03/2017 07:29:25 -0.01, -89.51 0.27, -90.74 140.24 80




NCC Satellite Simultaneous Nadir Overpasses (SNOs) Prediction Service
